Regional Weather Roundup
Issued by NWS

Home | Current Version | Previous Version | Text Only | Print | Product List | Glossary Off
Versions: 1 2 3 4 5 6 7 8 9 10 11 12 13 14 15 16 17 18 19 20 21 22 23 24 25 26 27 28 29 30 31 32 33 34 35 36 37 38 39 40 41 42 43 44 45 46 47 48 49 50

000
ASUS45 KBOU 220507
RWRCO

WEATHER ROUNDUP FOR COLORADO
NATIONAL WEATHER SERVICE DENVER/BOULDER CO
1000 PM MST FRI NOV 21 2014

NOTE: "FAIR" INDICATES FEW OR NO CLOUDS BELOW 12000 FEET WITH NO
SIGNIFICANT WEATHER AND/OR OBSTRUCTIONS TO VISIBILITY.

COZ001>005-013-030-031-220600-
...NORTHWEST COLORADO...

CITY           SKY/WX    TMP DP  RH WIND       PRES   REMARKS
CRAIG          CLEAR     20  15  81 CALM      30.05R
HAYDEN         CLEAR     27  18  69 E9        30.04S WCI  17
MEEKER         CLEAR     27  20  75 CALM      30.06R
MOUNT WERNER   NOT AVBL
STEAMBOAT SPGS CLEAR     26  18  72 CALM      30.05S
WALDEN         CLEAR     18  10  73 SE7       30.03F WCI   8
$$

COZ006>008-011-220600-
...WEST CENTRAL VALLEYS...

CITY           SKY/WX    TMP DP  RH WIND       PRES   REMARKS
GRAND JUNCTION CLEAR     27  16  63 E5        30.07S WCI  22
MONTROSE       CLEAR     30  20  66 SE12      30.11R WCI  20
EAGLE          PTCLDY    25  19  80 CALM      30.11S
RIFLE          CLEAR     28  20  71 CALM      30.08S
DELTA          HAZE      32  19  58 E6        30.11R VSB 1   WCI  26
NUCLA          CLEAR     32  23  69 E10       30.13S WCI  24
$$

COZ017>023-064>068-220600-
...SOUTHWEST COLORADO...

CITY           SKY/WX    TMP DP  RH WIND       PRES   REMARKS
DURANGO        CLEAR     28  19  69 N5        30.11R WCI  23
CORTEZ         CLEAR     27  20  75 E7        30.11R WCI  19
PAGOSA SPRINGS CLEAR     26  18  70 CALM      30.13R
TELLURIDE      PTCLDY    26  17  70 E3        30.16S
WOLF CREEK PAS PTCLDY    19  12  73 SW10      30.17S WCI   8
$$

COZ009-010-012-014-032>034-037-058>063-220600-
...CENTRAL COLORADO...

CITY           SKY/WX    TMP DP  RH WIND       PRES   REMARKS
ASPEN          PTCLDY    21  13  71 S6        30.09F WCI  13
BUENA VISTA    PTCLDY    26  14  60 SW3       30.10R
COPPER MTN     PTCLDY    23   9  54 S9        30.13S WCI  13
BERTHOUD PASS  FAIR      18  12  79 W10G21    30.12S WCI   6
COTTONWOOD PAS PTCLDY    32  10  40 W10       30.11S WCI  24
GUNNISON       PTCLDY    18  10  73 CALM      30.17S
KREMMLING      PTCLDY    18  14  86 CALM      30.09S
LEADVILLE      PTCLDY    16   7  67 CALM      30.10F
MONARCH PASS   PTCLDY    19  10  68 W22       30.24S WCI   3
SALIDA         PTCLDY    32  15  49 W3        30.16R
SUNLIGHT       CLEAR     25  16  68 CALM      30.14F
WILKERSON PASS PTCLDY    25   9  50 W7        30.14F WCI  17
$$

COZ069>075-220600-
...SAN LUIS VALLEY/SANGRE DE CRISTO MOUNTAINS...

CITY           SKY/WX    TMP DP  RH WIND       PRES   REMARKS
ALAMOSA        MOCLDY    14   9  80 CALM      30.11R
LA VETA PASS   PTCLDY    27  14  59 S12G17    30.12S WCI  16
SAGUACHE       PTCLDY    27  16  63 N9        30.13R WCI  17
$$

COZ035-036-038>040-220600-
...NORTHERN COLORADO FRONT RANGE...

CITY           SKY/WX    TMP DP  RH WIND       PRES   REMARKS
DENVER INTL AP PTCLDY    40  22  48 SW12      29.96F
DMNS CITY PARK   N/A     36  21  55 S7        29.97F
AURORA         PTCLDY    35  21  56 S9        29.98F WCI  28
FRONT RANGE AP CLEAR     34  27  75 S15       29.98S WCI  24
ERIE MUNI ARPT CLEAR     39  19  45 S6        29.96R
BOULDER MUN AP CLEAR     48  18  29 SW13G21   29.95S
CENTENNIAL     PTCLDY    36  19  50 SW9       29.98F
BROOMFIELD     PTCLDY    43  16  33 CALM      29.97F
FORT COLLINS   CLEAR     34  25  69 CALM      29.96S
LONGMONT       CLEAR     32  22  66 NW3       29.97S
$$

COZ041-046-047-076>085-087-088-220600-
...PIKES PEAK/PALMER DIVIDE AND SOUTHERN FOOTHILLS...

CITY           SKY/WX    TMP DP  RH WIND       PRES   REMARKS
COLO. SPRINGS  PTCLDY    31  19  61 NW6       30.03S WCI  25
A. F. ACADEMY  PTCLDY    24  15  66 N8        30.02S WCI  16
ELLICOTT       PTCLDY    29  19  66 CALM      30.01S
FALCON         NOT AVBL
FORT CARSON    PTCLDY    33  20  60 NW12      30.01R WCI  24
LIMON          MOCLDY    21  16  81 NW5       29.99S WCI  15
MONUMENT HILL  PTCLDY    28  18  64 SW7       30.01S WCI  21
TRINIDAD       MOCLDY    35  24  64 W12       30.02R WCI  27
$$

COZ042>045-048>051-090-091-220600-
...NORTHEAST COLORADO...

CITY           SKY/WX    TMP DP  RH WIND       PRES   REMARKS
GREELEY ARPT   CLEAR     23  12  63 NW7       29.96S WCI  15
AKRON          CLEAR     38  20  48 SW14      29.94S
BURLINGTON     PTCLDY    33  17  51 SW8       29.95S WCI  26
WRAY           PTCLDY    30  18  60 SW6       29.94S WCI  24
STERLING       CLEAR     30  23  74 SW3       29.93S
HOLYOKE        PTCLDY    28  18  64 W8        29.92S WCI  20
FORT MORGAN    CLEAR     35  20  55 W6        29.95S WCI  30
$$

COZ086-089-092>099-220600-
...SOUTHEAST COLORADO...

CITY           SKY/WX    TMP DP  RH WIND       PRES   REMARKS
PUEBLO         PTCLDY    33  27  78 W6        30.00R WCI  28
LA JUNTA       MOCLDY    37  30  75 NW3       29.98R
LAMAR          MOCLDY    33  29  85 CALM      29.96S
SPRINGFIELD      N/A     32  27  81 NW5       29.97S WCI  27
$$



USA.gov is the U.S. government's official web portal to all federal, state and local government web resources and services.